[[{"header":{"parameterUnit":"m.s-1","parameterCategory":1,"la1":30.2991,"la2":30.254,"lo1":-89.0895,"lo2":-89.0444,"dx":0.0017,"dy":0.0017,"nx":28,"ny":28,"refTime":"2023-01-10T15:00:00:Z","depth":0,"parameterNumber":2,"parameterNumberName":"U-component_of_WINDS"},"data":[0,0,0,0,0,0,0,0,0,0,0,0,0,0,0,0,0,0,0,0,0,0,0,0,0,0,0,0,0,0,0,0,0,0,0,0,0,0,0,0,0,0,0,0,0,0,0,0,0,0,0,0,0,0,0,0,0,0,-0.9994,-0.9993,0,-0.9899,-0.9898,-0.9897,-0.984,-0.984,-0.9839,-0.9839,-0.9741,-0.9739,-0.9736,0,0,0,0,0,0,0,0,0,0,0,0,0,-1.0125,-1.0123,-0.9994,-0.9993,-0.9992,-0.9899,-0.9898,-0.9897,-0.984,-0.984,-0.9839,-0.9839,-0.9742,-0.9739,-0.9736,0,0,0,0,0,0,0,0,0,0,0,0,0,-1.0053,-1.0122,-0.9994,-0.9952,-0.9947,-0.99,-0.9898,-0.9896,-0.984,-0.9839,-0.9839,-0.9839,-0.9743,-0.9739,-0.9736,-0.9722,0,0,-0.9725,-0.9724,0,0,0,0,0,0,0,0,-1.0057,-1.0048,-0.9959,-0.9955,-0.995,-0.9881,-0.9908,-0.9838,-0.984,-0.9881,-0.9839,-0.9838,-0.9788,-0.9781,-0.9764,-0.9718,-0.9714,-0.9725,-0.9723,-0.9721,-0.972,0,0,0,0,0,0,0,-1.0062,-1.0052,-0.9956,-0.9958,-0.9952,-0.9938,-0.9927,-0.9895,-0.9838,-0.9877,-0.9873,-0.9862,-0.9785,-0.9767,-0.9761,-0.9712,-0.9725,-0.9722,-0.972,-0.9718,-0.965,-0.965,0,0,0,0,0,0,-1.0074,-1.0056,-0.9959,-0.9954,-1.0003,-0.9936,-0.9924,-0.9903,-0.9838,-0.9828,-0.9863,-0.986,-0.9774,-0.9765,-0.9757,-0.9737,-0.9721,-0.9718,-0.9716,-0.965,-0.965,-0.965,0,0,0,0,0,0,-1.0077,-1.0066,-0.9963,-1.0004,-0.999,-0.9934,-0.9911,-0.9902,-0.9884,-0.9827,-0.9817,-0.9855,-0.9773,-0.9762,-0.9731,-0.9733,-0.9716,-0.9713,-0.9649,-0.965,-0.965,-0.9696,0,0,0,0,0,0,-1.0081,-1.0067,-1.0062,-1.0004,-0.9988,-0.9939,-0.9912,-0.99,-0.9878,-0.9873,-0.9817,-0.9807,-0.9772,-0.9737,-0.9728,-0.9727,-0.971,-0.9649,-0.9649,-0.965,-0.9694,-0.9698,-0.9701,0,0,0,0,0,-1.0086,-1.0078,-1.0062,-1.005,-0.998,-0.994,-0.993,-0.989,-0.9878,-0.9872,-0.9836,-0.9809,-0.9734,-0.9734,-0.9724,-0.9722,-0.9649,-0.9649,-0.965,-0.9692,-0.9697,-0.9701,0,0,0,0,0,0,-1.0137,-1.007,-1.0051,-1.0024,-0.9988,-0.993,-0.9921,-0.9896,-0.9862,-0.9859,-0.981,-0.9797,-0.9771,-0.9744,-0.9745,-0.9705,-0.9688,-0.9687,-0.9724,-0.9728,-0.9732,-0.9739,-0.9707,0,0,0,0,0,-1.0145,-1.0119,-1.0061,-1.0044,-1.0026,-0.9977,-0.9958,-0.993,-0.989,-0.9875,-0.9836,-0.9798,-0.9766,-0.9746,-0.9713,-0.969,-0.9677,-0.9684,-0.9687,-0.969,-0.969,-0.9675,-0.9677,-0.9652,-0.9652,-0.9652,0,0,-1.0162,-1.0122,-1.0108,-1.0053,-1.0021,-0.9995,-0.9964,-0.9937,-0.9917,-0.987,-0.9839,-0.9809,-0.9764,-0.9737,-0.9723,-0.9713,-0.9693,-0.9691,-0.9694,-0.9691,-0.9676,-0.9678,-0.968,-0.9653,-0.9653,-0.9653,0,0,-1.0179,-1.0146,-1.0128,-1.0097,-1.005,-1.0017,-1.0013,-0.9958,-0.9937,-0.9904,-0.9869,-0.9844,-0.9789,-0.9758,-0.9736,-0.9741,-0.9715,-0.9732,-0.975,-0.9736,-0.9738,-0.974,-0.9741,-0.9742,-0.9731,-0.9731,-0.9731,0,-1.0205,-1.0164,-1.0121,-1.0096,-1.0073,-1.003,-1.001,-0.9983,-0.9927,-0.9912,-0.9902,-0.9832,-0.9799,-0.9764,-0.9765,-0.9748,-0.9741,-0.9737,-0.9741,-0.9742,-0.9743,-0.9744,-0.9744,-0.9733,-0.9733,-0.9733,-0.9733,0,-1.0198,-1.017,-1.0161,-1.0109,-1.0084,-1.0062,-1.0016,-0.9997,-0.9971,-0.9939,-0.9907,-0.9865,-0.9823,-0.9813,-0.9787,-0.9774,-0.9769,-0.9751,-0.9732,-0.9748,-0.9748,-0.9748,-0.9737,-0.9736,-0.9735,-0.9735,0,0,-1.0244,-1.0169,-1.0166,-1.0142,-1.0087,-1.0064,-1.004,-0.9999,-0.9983,-0.9947,-0.9925,-0.988,-0.9863,-0.9837,-0.9808,-0.9796,-0.9802,-0.9779,-0.9777,-0.9784,-0.9784,-0.9798,-0.9799,-0.9785,-0.9785,-0.9785,-0.9788,0,-1.0252,-1.0207,-1.0168,-1.0137,-1.011,-1.0069,-1.0048,-1.0012,-0.9982,-0.9955,-0.9921,-0.989,-0.987,-0.9854,-0.984,-0.9804,-0.9801,-0.9804,-0.9763,-0.9763,-0.9775,-0.9799,-0.9813,-0.9818,-0.9787,-0.9787,-0.9787,0,-1.0255,-1.0221,-1.0187,-1.0135,-1.0122,-1.0104,-1.0063,-1.0038,-0.9996,-0.9975,-0.9946,-0.9915,-0.9888,-0.9873,-0.9834,-0.9837,-0.9818,-0.9798,-0.9797,-0.9791,-0.9775,-0.9793,-0.9818,-0.9819,-0.9787,-0.9787,-0.9787,0,-1.0291,-1.0236,-1.0209,-1.019,-1.0128,-1.0116,-1.009,-1.0048,-1.0026,-0.999,-0.9975,-0.9937,-0.9916,-0.9887,-0.9846,-0.9839,-0.9811,-0.9793,-0.9792,-0.9793,-0.9787,-0.9788,-0.981,-0.9777,-0.9777,-0.9777,-0.9777,0,-1.0304,-1.0285,-1.0224,-1.0208,-1.0185,-1.014,-1.0119,-1.0089,-1.0052,-1.0028,-0.9991,-0.9969,-0.9918,-0.989,-0.9858,-0.983,-0.9821,-0.9803,-0.9795,-0.9806,-0.9808,-0.9792,-0.9791,-0.9777,-0.9777,-0.9777,-0.9777,0,-1.034,-1.0299,-1.0266,-1.0211,-1.0196,-1.0182,-1.0134,-1.0116,-1.0084,-1.0055,-1.0045,-0.9995,-0.996,-0.9917,-0.9869,-0.9847,-0.9822,-0.981,-0.9837,-0.9832,-0.9833,-0.9833,-0.9844,-0.9843,-0.9813,-0.9813,-0.9813,0,-1.0351,-1.0335,-1.0278,-1.026,-1.0235,-1.0205,-1.0183,-1.0138,-1.0116,-1.0067,-1.0055,-1.0018,-0.9985,-0.9932,-0.9891,-0.9853,-0.9839,-0.9846,-0.9833,-0.9845,-0.9839,-0.984,-0.9838,-0.9849,-0.985,-0.985,-0.985,0,-1.0374,-1.0354,-1.0323,-1.0285,-1.0259,-1.0226,-1.0192,-1.0179,-1.0128,-1.0105,-1.0069,-1.0044,-0.9995,-0.9958,-0.9915,-0.9888,-0.986,-0.9855,-0.9852,-0.9863,-0.9879,-0.987,-0.9845,-0.9855,-0.9854,-0.9854,-0.9854,-0.9853,-1.0397,-1.0381,-1.0338,-1.0305,-1.0274,-1.0244,-1.0224,-1.0189,-1.0159,-1.0115,-1.0091,-1.0056,-1.0014,-0.9954,-0.9928,-0.9899,-0.9889,-0.9886,-0.9885,-0.9885,-0.9888,-0.9884,-0.9891,-0.9891,-0.9891,-0.9891,-0.9891,0,-1.0417,-1.0388,-1.0357,-1.0311,-1.0285,-1.0262,-1.0223,-1.0202,-1.0172,-1.0135,-1.0105,-1.0063,-1.0027,-0.9983,-0.9944,-0.993,-0.9916,-0.9921,-0.9921,-0.9915,-0.9899,-0.9905,-0.9933,-0.9933,-0.9933,-0.9933,-0.9933,-0.9933,-1.0425,-1.0396,-1.0372,-1.0328,-1.0298,-1.0264,-1.0244,-1.0215,-1.0185,-1.0141,-1.0111,-1.0083,-1.0043,-1.0001,-0.9967,-0.9955,-0.9942,-0.995,-0.9934,-0.992,-0.9916,-0.9913,-0.9918,-0.9948,-0.9948,-0.9952,-0.9952,-0.9953]},{"header":{"parameterUnit":"m.s-1","parameterCategory":1,"la1":30.2991,"la2":30.254,"lo1":-89.0895,"lo2":-89.0444,"dx":0.0017,"dy":0.0017,"nx":28,"ny":28,"refTime":"2023-01-10T15:00:00:Z","depth":0,"parameterNumber":3,"parameterNumberName":"V-component_of_WINDS"},"data":[0,0,0,0,0,0,0,0,0,0,0,0,0,0,0,0,0,0,0,0,0,0,0,0,0,0,0,0,0,0,0,0,0,0,0,0,0,0,0,0,0,0,0,0,0,0,0,0,0,0,0,0,0,0,0,0,0,0,1.752,1.752,0,1.7545,1.7545,1.7545,1.7551,1.7551,1.7551,1.755,1.7574,1.7575,1.7575,0,0,0,0,0,0,0,0,0,0,0,0,0,1.7476,1.7477,1.752,1.752,1.7521,1.7545,1.7545,1.7545,1.7551,1.7551,1.755,1.755,1.7574,1.7575,1.7575,0,0,0,0,0,0,0,0,0,0,0,0,0,1.7498,1.7477,1.752,1.7526,1.7527,1.7545,1.7545,1.7545,1.7551,1.7551,1.755,1.755,1.7573,1.7574,1.7576,1.7588,0,0,1.7579,1.758,0,0,0,0,0,0,0,0,1.7496,1.7499,1.7525,1.7526,1.7527,1.7545,1.7538,1.756,1.7551,1.7542,1.755,1.755,1.7564,1.7566,1.7571,1.7589,1.759,1.7579,1.758,1.758,1.7581,0,0,0,0,0,0,0,1.7495,1.7498,1.753,1.7525,1.7527,1.7528,1.753,1.7542,1.7554,1.7543,1.7543,1.7546,1.7565,1.757,1.7572,1.759,1.7579,1.758,1.7581,1.7581,1.7621,1.7621,0,0,0,0,0,0,1.7493,1.7497,1.7529,1.753,1.7511,1.7529,1.7532,1.7539,1.7554,1.7556,1.7546,1.7546,1.7568,1.757,1.7573,1.7589,1.758,1.7582,1.7582,1.762,1.7621,1.7621,0,0,0,0,0,0,1.7492,1.7495,1.7528,1.7514,1.7518,1.753,1.7538,1.754,1.7545,1.7557,1.7559,1.755,1.7568,1.7571,1.7584,1.759,1.7582,1.7583,1.762,1.762,1.7621,1.7621,0,0,0,0,0,0,1.749,1.7495,1.75,1.7514,1.7519,1.754,1.7538,1.754,1.7547,1.7548,1.7561,1.7562,1.7568,1.7583,1.7586,1.7591,1.7584,1.762,1.762,1.7621,1.7621,1.7621,1.7622,0,0,0,0,0,1.7489,1.7498,1.75,1.7504,1.7525,1.754,1.7543,1.755,1.7548,1.7553,1.756,1.7562,1.7589,1.7584,1.7587,1.7593,1.7619,1.762,1.7621,1.762,1.7621,1.7622,0,0,0,0,0,0,1.7484,1.75,1.7502,1.7517,1.7527,1.7541,1.7547,1.755,1.7561,1.756,1.7568,1.7571,1.7584,1.759,1.7584,1.7607,1.7604,1.7605,1.7602,1.7603,1.7604,1.7603,1.7585,0,0,0,0,0,1.7484,1.7495,1.7509,1.752,1.7525,1.7536,1.7542,1.7547,1.7557,1.7561,1.757,1.758,1.759,1.7597,1.7608,1.7622,1.7625,1.7627,1.7628,1.7629,1.763,1.7639,1.764,1.7624,1.7624,1.7624,0,0,1.7485,1.7496,1.7502,1.752,1.7528,1.7539,1.7539,1.755,1.7559,1.7563,1.7577,1.7583,1.7595,1.7609,1.7615,1.7614,1.7635,1.763,1.763,1.7631,1.764,1.7641,1.7643,1.7624,1.7624,1.7624,0,0,1.7493,1.7502,1.7513,1.7522,1.7535,1.7542,1.7545,1.7559,1.7564,1.7578,1.7581,1.7591,1.7609,1.7617,1.7624,1.7637,1.7639,1.764,1.7644,1.7652,1.7654,1.7655,1.766,1.7662,1.7641,1.7641,1.7641,0,1.7493,1.751,1.7518,1.753,1.7538,1.7543,1.7555,1.7562,1.7578,1.7583,1.7582,1.7606,1.7614,1.763,1.7634,1.7638,1.7642,1.7638,1.7653,1.7654,1.7656,1.7661,1.7662,1.7641,1.7641,1.7641,1.7641,0,1.751,1.7522,1.7529,1.7545,1.7554,1.7565,1.7575,1.7582,1.7586,1.7593,1.7608,1.7618,1.7631,1.7635,1.7639,1.7653,1.7652,1.7652,1.7649,1.7657,1.7662,1.7664,1.7641,1.7641,1.7641,1.7641,0,0,1.7514,1.7536,1.7538,1.7546,1.7562,1.7571,1.7583,1.7597,1.7603,1.7614,1.7624,1.764,1.7641,1.7648,1.7653,1.766,1.7671,1.7659,1.766,1.7662,1.7687,1.7688,1.769,1.7672,1.7672,1.7673,1.7687,0,1.7525,1.7547,1.7555,1.7573,1.7584,1.759,1.7601,1.7611,1.7618,1.7629,1.7636,1.7648,1.7647,1.7652,1.766,1.7668,1.7676,1.7667,1.7682,1.7682,1.7679,1.7692,1.7692,1.7705,1.7689,1.7689,1.7689,0,1.7539,1.7552,1.7571,1.7587,1.7592,1.7601,1.7615,1.7625,1.7637,1.7642,1.7651,1.7655,1.7668,1.7665,1.7682,1.7676,1.7683,1.7688,1.7688,1.769,1.7686,1.7695,1.7709,1.7711,1.7692,1.7692,1.7692,0,1.7542,1.7563,1.7578,1.7584,1.7602,1.7609,1.7617,1.7629,1.7637,1.7649,1.7654,1.7667,1.7674,1.7684,1.7692,1.7688,1.7709,1.7706,1.7714,1.7713,1.7718,1.7717,1.7734,1.7721,1.7721,1.7721,1.7721,0,1.7553,1.7564,1.7579,1.7588,1.7602,1.7611,1.7624,1.7632,1.7643,1.7654,1.766,1.7669,1.7679,1.769,1.7696,1.7711,1.7714,1.7718,1.7719,1.7718,1.7717,1.7722,1.7722,1.7722,1.7722,1.7721,1.7721,0,1.7557,1.7568,1.7584,1.7601,1.7605,1.7615,1.7628,1.7637,1.7645,1.7659,1.7662,1.7674,1.7688,1.7697,1.7714,1.7718,1.7734,1.7735,1.773,1.7731,1.7738,1.7737,1.7758,1.7762,1.7747,1.7747,1.7747,0,1.7564,1.7573,1.7591,1.7599,1.7607,1.762,1.7629,1.7638,1.7647,1.7663,1.767,1.7684,1.7696,1.7717,1.7727,1.774,1.7742,1.7749,1.7744,1.7742,1.7743,1.7743,1.7744,1.7749,1.7749,1.775,1.775,0,1.7574,1.7579,1.7592,1.7607,1.7618,1.763,1.7641,1.7648,1.7659,1.7669,1.7683,1.7693,1.7711,1.7725,1.7739,1.7747,1.775,1.7751,1.7754,1.7752,1.7749,1.7752,1.7732,1.775,1.775,1.775,1.775,1.775,1.758,1.759,1.7604,1.7618,1.7629,1.764,1.765,1.7659,1.7672,1.7688,1.7693,1.7708,1.7721,1.7741,1.7749,1.7761,1.776,1.7764,1.7765,1.7765,1.7766,1.7747,1.7764,1.7763,1.7763,1.7763,1.7763,0,1.7592,1.7602,1.7615,1.7632,1.7644,1.7647,1.766,1.767,1.7683,1.7695,1.7707,1.7725,1.7739,1.775,1.7765,1.7772,1.7774,1.7776,1.7775,1.7777,1.7765,1.7762,1.7774,1.7774,1.7774,1.7774,1.7774,1.7774,1.7599,1.7615,1.7622,1.7644,1.7653,1.7669,1.7677,1.7687,1.7697,1.7716,1.7729,1.7736,1.7749,1.7764,1.7777,1.778,1.7786,1.7787,1.779,1.7779,1.7778,1.7777,1.7774,1.7788,1.7788,1.7802,1.7802,1.7802]}]]